Flag for Canada Weather past 2 weeks in Summerside, Prince Edward Island, Canada

Now
39 °F

Chilly.


Feels Like: 30 °F
Forecast: 35 / 40 °F
Wind: 18 mph from Southeast

Location: Summerside Airport

Current Time: Apr 21, 2015 at 11:01:34 AM

Latest Report: Apr 21, 2015 at 10:00 AM


Visibility: N/A

Pressure: 30.14 "Hg

Humidity: 70%

Dew point: 30 °F

Location of SummersideLocation

Historic Weather in Summerside — Graph

°F

Summerside temperature yesterday

Maximum temperature yesterday: 45 °F (at 4:00 PM)
Minimum temperature yesterday: 27 °F (at 6:00 AM)
Average temperature yesterday: 36 °F

Past Weeks' High & Low Weather Summary

 TemperatureHumidityPressure
High47 °F (Apr 13, 6:00 PM)100% (Apr 11, 5:00 AM)30.59 "Hg (Apr 11, 5:00 AM)
Low18 °F (Apr 7, 6:00 AM)39% (Apr 6, 4:00 PM)29.37 "Hg (Apr 11, 1:00 PM)
Average33 °F75%30.12 "Hg
* Reported Apr 6 10:00 AM — Apr 21 10:00 AM, Summerside, Weather by CustomWeather, © 2015

Note: Actual official high and low records may vary slightly from our data, if they occured in-between our weather recording intervals... More about our weather records

Advertising

Summerside weather history for previous 24 hours

 ConditionsComfort  
Time TempWeatherWind HumidityBarometerVisibility
10:00 AM
Tue, Apr 21
39 °FChilly.18 mph70%30.14 "HgN/A
9:00 AM38 °FChilly.17 mph75%30.16 "HgN/A
8:00 AM37 °FChilly.16 mph78%30.17 "HgN/A
7:00 AM35 °FChilly.15 mph83%30.19 "HgN/A
6:00 AM36 °FChilly.13 mph80%30.21 "HgN/A
5:00 AM36 °FChilly.14 mph89%30.23 "HgN/A
4:00 AM35 °FChilly.17 mph85%30.24 "HgN/A
3:00 AM36 °FChilly.17 mph81%30.26 "HgN/A
2:00 AM36 °FChilly.16 mph80%30.28 "HgN/A
1:00 AM37 °FChilly.16 mph75%30.30 "HgN/A
12:00 AM38 °FChilly.15 mph72%30.30 "HgN/A
11:00 PM
Mon, Apr 20
39 °FChilly.15 mph68%30.30 "HgN/A
10:00 PM39 °FChilly.12 mph61%30.31 "HgN/A
9:00 PM39 °FChilly.9 mph65%30.31 "HgN/A
8:00 PM37 °FChilly.9 mph73%30.31 "HgN/A
7:00 PM38 °FChilly.9 mph73%30.32 "HgN/A
6:00 PM41 °FQuite cool.10 mph59%30.33 "HgN/A
5:00 PM42 °FQuite cool.10 mph66%30.32 "HgN/A
4:00 PM45 °FQuite cool.2 mph54%30.34 "HgN/A
3:00 PM42 °FQuite cool.8 mph63%30.36 "HgN/A
2:00 PM43 °FQuite cool.6 mph60%30.35 "HgN/A
1:00 PM42 °FQuite cool.8 mph62%30.34 "HgN/A
12:00 PM39 °FChilly.9 mph78%30.35 "HgN/A
11:00 AM36 °FChilly.8 mph74%30.36 "HgN/A
Weather by CustomWeather, © 2015

See weather overviewHow to use our weather pages